sat.trackr.live / text

‹ back to catalog

STARLINK-33737

NORAD 63456 · 2025-069Z

PAYLOAD ACTIVE UNKNOWN

§ Identity

Operator
Country
US
Launch date
2025-04-04
Launch site
AFWTR
Launch vehicle
Mass (kg)
RCS (m²)

Purposes: comms

External: N2YO · Heavens-Above · Gunter

§ Orbital elements

Epoch: 2026-05-24T17:27:46.280736Z

Period
93.37 min
Inclination
53.1597°
Eccentricity
0.0001302
Mean motion
15.42177499 rev/d
Perigee alt
438.8 km
Apogee alt
440.6 km
Semi-major
6,817.8 km
B*
5.9533e-4
RAAN
146.6281°
Arg perigee
80.6312°
Mean anomaly
279.4841°
Rev number
6,497

§ Raw data

STARLINK-337371 63456U 25069Z   26144.72761899  .00025596  00000+0  59533-3 0  99962 63456  53.1597 146.6281 0001302  80.6312 279.4841 15.42177499 64970

JSON: /api/v1/satellites/63456 · /tle

For live sub-satellite position, see the globe view (requires WebGL).

§ Visibility from observer

Set your observer location to see the next 7 days of passes ≥ 10°. The values pass through the URL so the page stays shareable.

No JS? Fill the form by hand. The geolocation button needs JavaScript.